Theta_e
323 324 324 324 327 329 328 327 325 325 324 322 322 321 320 320 321 319 316 317 325 330 330 330 329 328 327 326 325 324 322 320 319 318 317 317 316 316 316 316 315 315 315
327 326 325 328 326 327 328 327 326 326 321 320 320 321 320 322 318 315 314 313 317 322 327 328 328 327 326 325 324 323 321 319 317 316 315 314 315 315 314 314 314 314 314
321 322 322 320 321 324 324 324 322 323 322 322 319 321 320 317 314 311 310 308 308 312 316 321 323 325 324 323 321 320 318 316 314 312 312 312 313 313 312 312 312 312 312
317 317 316 314 317 316 314 315 314 317 317 317 317 317 314 312 309 306 305 304 303 303 306 310 313 317 319 319 318 317 314 313 310 310 309 310 312 312 311 311 311 311 311
312 310 309 309 312 311 308 310 309 311 312 314 316 312 308 306 305 303 300 299 298 297 296 300 302 307 311 314 314 313 312 309 308 308 308 309 310 309 309 309 309 309 308
306 305 305 306 307 305 302 302 306 309 309 311 311 308 305 303 301 298 296 295 294 292 291 290 290 292 304 307 309 309 308 307 305 305 305 306 307 308 307 307 307 307 307
302 302 301 301 301 299 297 299 301 305 305 307 307 304 301 299 297 294 294 293 291 289 288 287 286 286 287 300 304 305 306 305 304 303 303 303 304 305 304 304 305 305 305
299 299 297 297 296 296 295 295 296 300 302 301 307 304 299 297 293 290 290 290 288 288 285 283 283 284 284 286 295 300 301 302 303 302 302 302 302 302 302 303 303 304 304
296 296 295 295 294 294 293 292 292 295 297 297 297 301 300 294 294 293 289 287 286 285 283 283 282 282 282 283 287 291 296 297 298 299 299 300 300 301 301 301 302 302 302
294 294 293 293 292 292 290 291 292 291 292 290 293 294 296 297 294 288 287 286 285 284 283 282 280 281 281 281 285 290 293 293 294 295 296 297 298 298 299 300 300 300 300
291 291 291 291 291 290 289 289 288 288 288 287 287 288 291 291 292 295 285 283 284 283 283 283 281 278 279 280 280 285 291 291 292 292 293 294 295 295 296 297 297 298 298
288 289 290 289 289 289 288 287 287 286 286 285 284 284 285 285 286 287 290 286 284 282 283 283 281 279 278 278 282 284 288 289 290 290 291 291 292 293 294 294 295 295 295
286 287 287 287 288 287 287 286 285 284 283 283 282 282 282 282 283 284 285 284 286 283 282 281 281 279 279 278 279 281 285 287 288 288 289 289 290 290 290 292 293 292 292
286 287 286 286 287 287 286 285 284 283 282 281 280 280 280 280 281 281 281 282 284 285 283 280 280 277 278 278 279 280 278 284 286 287 287 287 287 288 289 289 290 290 290
287 286 286 285 285 285 285 283 282 282 281 281 281 280 280 279 280 279 279 279 281 280 282 277 277 277 277 277 278 275 277 280 284 286 285 285 286 286 286 287 287 287 288
285 285 285 284 284 284 283 282 281 281 281 281 281 280 279 279 278 278 278 278 278 278 277 276 275 275 276 277 277 275 276 276 280 283 282 283 284 284 284 284 285 285 286
285 285 284 284 283 283 282 281 281 281 280 280 280 279 278 278 277 276 277 277 275 277 276 275 276 275 274 274 274 274 275 274 275 280 280 281 281 281 282 282 282 283 284
284 284 284 283 282 281 281 281 280 280 279 279 279 278 277 279 276 276 276 275 276 276 278 275 275 274 273 273 273 271 273 273 274 277 278 279 279 279 280 280 280 281 282
283 283 282 282 282 281 281 281 280 280 279 278 277 276 276 276 275 275 275 275 275 277 277 276 274 274 272 272 272 272 271 271 273 275 275 275 276 277 277 278 277 279 280
282 282 281 281 281 281 281 280 280 279 278 278 278 277 277 276 275 275 275 275 275 275 275 274 273 272 271 271 270 268 268 269 269 271 271 272 274 274 274 275 274 277 279
282 281 281 280 280 280 281 280 280 278 277 276 276 278 277 278 280 277 275 274 274 274 273 273 272 271 269 268 267 267 266 266 267 267 267 268 269 269 269 270 271 275 278
280 280 280 279 279 281 284 284 280 278 277 276 275 276 276 277 279 280 280 279 275 272 272 272 270 269 267 267 266 265 264 262 261 267 265 265 269 267 268 268 272 275 276
279 279 279 279 279 279 285 286 283 278 277 276 275 275 275 275 275 274 275 275 275 276 274 271 268 267 266 266 266 264 264 263 263 265 264 263 266 264 267 267 271 274 275
278 278 278 278 278 279 285 286 284 277 276 276 275 275 275 274 273 272 271 270 270 269 269 269 268 267 267 268 266 265 264 262 261 264 264 260 263 263 265 265 269 272 274
278 278 279 278 278 278 285 286 284 277 277 275 276 275 274 273 275 276 271 269 267 268 273 274 273 273 272 272 268 263 255 254 255 262 263 261 262 261 263 263 266 269 271
278 278 279 278 277 278 284 286 283 276 275 274 275 275 277 274 277 277 271 268 263 264 265 262 265 267 266 267 267 264 262 254 255 254 263 260 260 260 258 262 263 264 264
Wind_Speed
3 1 1 0 1 2 2 3 3 3 3 3 3 3 2 2 6 4 4 18 17 16 13 13 12 9 10 11 13 14 14 13 15 15 13 12 12 12 13 14 14 14 14
3 3 1 1 2 2 3 3 3 3 2 2 3 3 4 5 7 6 4 8 22 22 20 18 17 15 13 13 15 14 15 14 14 15 12 12 13 14 15 15 15 15 15
1 2 2 3 3 3 4 4 4 2 3 3 5 6 6 8 6 7 7 6 8 22 23 22 21 20 17 16 16 15 15 14 14 12 11 11 13 14 14 15 15 15 16
3 4 3 3 3 2 2 2 3 2 2 3 4 6 6 7 8 8 8 7 7 7 14 22 22 19 17 16 14 14 15 15 13 12 10 12 13 14 15 15 14 15 15
5 4 3 2 3 2 4 4 3 3 3 4 6 6 6 6 6 7 8 8 8 8 6 14 19 20 17 15 14 13 15 12 12 12 12 12 13 14 13 14 15 14 14
5 4 3 4 4 4 4 4 4 4 3 4 7 7 6 6 5 5 6 7 7 9 8 9 7 8 17 14 12 12 11 10 10 10 10 11 12 13 13 13 13 13 14
5 5 4 5 5 5 5 5 2 4 4 3 3 4 5 6 6 4 4 5 6 9 8 6 4 4 5 15 14 13 12 11 10 10 9 9 11 12 11 12 13 13 13
6 5 5 5 5 4 5 5 5 1 2 3 0 2 2 1 3 4 4 5 5 5 7 7 7 7 6 6 11 14 13 13 13 12 11 11 11 12 12 13 13 14 15
6 6 6 5 5 4 4 4 4 4 1 2 5 1 1 3 2 1 4 4 5 4 4 6 6 6 6 5 8 9 13 13 14 12 12 13 13 14 14 14 14 15 16
6 5 5 5 5 4 5 3 4 3 2 3 3 3 2 0 3 1 2 3 4 4 4 4 5 5 5 4 10 12 12 13 14 13 12 12 13 14 15 15 15 15 16
5 5 5 6 5 4 4 5 5 6 4 3 3 3 3 2 2 0 2 1 3 4 4 5 5 4 5 5 5 7 11 12 13 12 13 15 15 14 14 13 14 15 17
3 5 5 5 5 5 5 4 5 7 5 5 3 4 3 2 2 2 1 2 3 2 3 3 3 3 3 3 6 8 9 10 11 10 12 14 14 15 15 14 15 15 16
1 3 3 4 3 4 5 5 5 6 5 4 4 3 3 3 2 2 1 0 1 2 2 2 2 3 4 4 5 8 11 10 9 8 11 13 13 13 13 15 15 15 15
4 3 4 5 5 5 5 5 4 4 5 5 7 5 3 4 3 2 1 0 1 2 2 3 2 3 3 3 7 10 6 12 12 10 13 12 12 13 14 15 16 16 15
3 5 5 5 5 5 5 5 4 4 5 4 5 5 3 3 4 4 3 2 2 2 2 2 2 2 2 3 7 5 5 12 11 11 14 14 12 13 13 14 14 14 16
5 5 5 5 5 5 5 5 4 4 5 3 3 5 4 3 4 3 3 2 1 1 2 0 2 2 3 2 6 4 5 8 10 11 12 12 12 14 14 15 14 15 14
5 5 5 5 5 5 4 5 5 4 5 5 4 5 5 4 3 4 3 3 3 2 2 1 2 1 3 3 4 4 4 5 4 11 12 12 11 14 15 15 14 13 13
5 6 5 5 4 4 4 5 4 4 5 5 4 5 4 3 4 3 3 3 3 3 1 3 1 1 3 3 3 3 5 5 4 8 12 11 10 14 15 15 12 13 13
5 5 5 5 5 5 5 4 5 4 5 5 4 4 3 4 3 1 2 3 3 3 2 3 2 2 2 3 2 2 4 5 4 6 12 11 10 13 14 15 11 13 14
6 5 5 5 5 5 4 5 5 5 5 4 4 4 3 3 3 2 3 2 2 3 3 3 3 2 2 2 2 3 4 3 3 4 8 10 9 10 13 15 10 13 14
5 5 5 5 4 4 4 5 5 5 5 5 4 4 4 3 4 2 2 2 1 2 2 3 2 1 1 2 3 3 3 4 2 4 5 4 4 3 5 9 9 12 14
6 6 5 5 5 3 9 10 7 5 4 5 4 3 3 4 6 10 9 8 4 2 2 2 1 1 1 1 1 1 2 3 4 3 5 5 2 4 4 4 13 11 15
5 6 5 5 6 5 11 12 12 5 5 5 5 6 3 2 4 4 7 8 9 10 6 3 3 2 2 1 1 1 1 1 3 3 4 4 2 6 4 7 12 9 17
6 5 6 6 6 5 11 13 13 6 5 5 6 6 5 5 5 5 4 4 4 3 5 5 4 3 3 3 1 1 1 4 4 2 4 3 3 5 6 5 9 9 20
6 6 4 6 6 6 13 14 12 6 6 6 5 6 6 5 9 9 4 4 3 2 5 8 7 6 4 5 4 2 2 3 3 1 3 3 3 6 6 5 4 12 21
4 5 6 6 7 7 13 14 12 4 5 4 4 5 10 7 10 10 5 5 4 3 3 2 3 4 4 3 4 2 1 2 0 3 0 4 3 4 6 3 6 8 8
Wind_Direction
119 93 7 307 3 329 324 326 304 279 295 307 303 284 332 99 94 84 56 37 35 39 47 53 54 52 65 72 73 74 70 56 56 38 22 20 24 30 31 29 27 24 23
152 142 203 266 289 287 288 323 319 332 329 331 7 29 80 99 85 81 69 50 48 39 41 46 49 41 43 54 62 57 57 53 47 44 20 21 27 32 29 28 29 26 24
58 102 40 12 348 338 14 10 358 34 47 71 69 71 77 79 77 66 55 47 44 45 43 38 41 46 47 54 56 54 48 44 40 39 25 23 29 34 28 28 25 23 23
30 46 59 21 0 1 359 350 19 9 34 51 80 62 61 64 64 62 57 52 52 49 43 41 40 40 43 47 50 51 44 41 36 30 26 23 32 32 29 23 22 22 21
54 71 65 13 353 8 24 358 20 25 40 63 74 61 52 55 60 70 71 66 59 52 43 41 38 36 37 34 42 47 45 40 34 28 25 21 26 28 23 20 16 14 13
56 75 63 40 24 31 18 11 23 32 58 71 75 71 66 59 52 56 66 71 67 68 56 46 32 22 35 33 35 40 43 39 34 29 22 20 21 23 17 13 7 11 9
43 45 42 38 31 42 22 10 359 46 40 16 109 89 54 74 69 57 55 66 79 82 77 63 49 32 18 27 31 32 30 31 31 26 22 20 20 21 10 7 8 8 6
42 54 48 42 38 44 30 24 31 29 82 17 334 124 170 151 59 67 65 69 60 85 82 55 41 31 20 10 26 36 32 27 27 23 19 19 16 13 8 7 7 7 6
54 59 58 60 53 54 47 29 24 40 94 13 44 187 192 238 148 117 66 71 66 44 58 83 57 44 32 21 19 16 35 31 26 22 22 26 18 11 8 7 5 9 7
60 63 70 70 64 55 48 25 23 28 48 27 339 16 19 88 192 219 60 87 96 75 59 60 55 40 33 31 24 16 35 36 29 23 27 24 19 11 7 5 6 9 8
62 67 67 65 62 54 48 44 32 32 33 61 18 349 354 357 1 224 186 66 47 46 45 56 64 47 25 24 20 5 35 33 32 29 24 19 10 10 10 7 9 9 5
62 59 67 70 67 63 53 47 45 47 45 60 52 41 44 21 2 5 27 138 156 106 92 86 75 65 38 36 53 32 47 40 36 30 32 22 13 9 5 5 12 9 6
88 77 76 71 66 65 61 61 60 55 43 57 42 56 50 43 342 333 9 156 159 168 152 77 79 66 51 14 19 36 33 32 35 40 42 16 13 12 10 6 7 7 5
136 120 99 86 81 78 69 63 60 61 56 55 53 47 53 32 29 21 19 252 274 167 162 133 66 45 38 16 23 29 10 20 16 27 27 24 20 12 12 14 5 1 1
125 117 109 102 85 78 74 72 70 69 72 60 60 56 65 35 33 27 29 14 329 284 192 97 130 44 58 32 32 11 21 16 16 40 16 13 16 23 11 10 4 358 358
123 125 115 104 94 88 92 94 87 72 76 57 56 58 46 38 37 31 34 28 56 215 167 233 81 112 23 44 31 22 27 21 14 41 19 14 13 18 11 5 1 1 349
139 132 124 123 129 126 109 96 89 88 83 74 60 70 62 55 47 32 23 17 18 7 88 48 64 60 45 21 21 6 18 17 1 30 16 13 10 12 6 3 0 353 348
145 140 145 135 128 122 129 131 122 102 103 90 71 67 53 56 53 38 33 26 15 6 97 138 107 85 46 357 10 26 15 14 346 25 14 9 6 8 4 1 358 351 345
145 144 141 151 163 159 141 126 120 120 104 96 97 90 73 71 63 46 36 14 4 34 59 132 116 62 67 7 339 358 8 9 340 7 6 360 348 2 359 358 347 349 342
158 160 165 169 174 159 138 139 136 124 119 122 109 104 100 112 153 130 74 44 32 46 52 79 80 86 38 35 35 348 343 351 331 351 346 342 335 343 348 353 341 340 349
171 167 172 179 162 154 165 161 153 150 147 132 124 114 101 104 99 116 108 68 93 80 85 82 87 104 35 15 12 340 298 319 305 16 326 322 316 311 322 341 331 329 351
181 184 184 173 177 186 194 177 163 158 157 154 132 107 109 73 90 85 83 81 84 126 153 113 106 143 115 43 356 316 311 3 335 54 341 304 291 303 308 320 326 319 345
180 196 187 180 199 202 200 189 177 161 169 168 165 150 171 134 99 96 91 74 47 65 82 119 136 149 156 184 167 307 349 272 261 338 332 285 325 308 292 324 322 317 341
188 188 195 198 200 205 206 195 183 167 180 182 179 165 182 169 183 153 134 102 84 81 65 74 95 127 135 127 95 87 340 308 295 248 357 284 318 289 312 318 328 325 340
189 190 185 198 197 207 210 203 185 179 187 191 189 175 172 180 203 189 154 153 125 49 76 113 130 121 101 116 99 90 351 33 323 335 34 316 324 311 315 314 322 328 333
184 183 201 195 198 200 213 207 189 166 178 182 179 179 184 187 206 209 157 163 190 204 136 57 40 78 61 47 61 75 155 136 272 322 145 329 320 349 312 313 315 324 314